STARLINK-32323, 61677

Orbit data source: Space-Track

STARLINK-32323, 61677 is a payload satellite owned by SpaceX/Seattle (US) in LEO that was launched on Sat, 26 Oct 2024 UTC via an FALCON 9 launch vehicle from the Air Force Eastern Test Range (AFETR). Payload-class satellites include a variety of spacecraft equipped with specific instruments for various scientific and technological missions. These include communications satellites like Starlink; space stations such as the ISS; scientific satellites like the Hubble; Earth observation satellites from companies like Planet Labs, Umbra, and HawkEye 360; GPS; miniature CubeSats for education and research; and military/defense satellites.

Loading next visibility...
Identifier
61677, 2024-193S
Orbit
LEO
Country
Flag of USUS
Related business
Manufacturer
SpaceX/Seattle
Mission
Operational Commercial Communications
Bus & Motor
STARLINK V2M, Unknown motor
Mass
730 kg wet, ~700 kg dry
Launch date (UTC)
2024-10-26 (1 year ago)
Launch vehicle
FALCON 9
Launch site
Air Force Eastern Test Range (AFETR)
Object type
Payload
Rocket body
Debris
Shape & HBR
Box + 2 Pan, 17.7 m
Radar Cross Section
33.884 m², Large (>1 m²)

Expand to show TLE details & history
Last TLE update: 7 hours ago

TLE from 7 hours ago
0 STARLINK-32323
1 61677U 24193S   25312.15999564 -.00002604  00000-0 -75851-4 0  9991
2 61677  53.1610 295.2337 0001051  62.8297 297.2811 15.30187201 57928
Epoch: 2025-11-08T03:50Z
TLE epoch observation values (Epoch: 2025-11-08T03:50:23.623Z)
Latitude
Longitude
-169.95833°
Altitude
475.823 km
Speed
7.629 km/s
True Right ascension
19h 40m 56s
True Declination
0° 00' 00"
Sunlit
Object was in daylight at epoch
Visualization orbit readout
Latitude
Unknown
Longitude
Unknown
Altitude
Unknown
Speed
Unknown
Apparent Right ascension
Unknown
Apparent Declination
Unknown
Sunlit
N/A
Visualization observer readout
Local Sidereal Time
06:46:50
Azimuth
Unknown
Elevation
Unknown
Doppler factor
Unknown
Orbital elements
Apogee altitude
476.23 km
Perigee altitude
474.789 km
Semi-major axis
6,853.647 km
Eccentricity
0.00011
Inclination
53.161°
RAAN
295.2337°
Arg. of periapsis
62.8297°
True anomaly
297.2704°
Mean anomaly
297.2811°
Eccentric anomaly
297.27575°
Mean motion
3.82526 °/min
Orbital period
94.11 mins
BSTAR
-0.000075851
Loading maneuver chart data...
Computing Atmospheric mass density...
Loading historical data...
Loading historical data...
Loading historical data...
Loading historical data...
Loading historical data...
Loading historical data...
Loading historical data...

Documentation

Showing up to 5 results
|